Tracking 20942 objects as of 12-Jul-2020
HD Live streaming from Space Station
objects crossing your sky now

XSAT

Track XSAT now!
10-day predictions
XSAT is classified as:


NORAD ID: 37389
Int'l Code: 2011-015C
Perigee: 808.1 km
Apogee: 827.3 km
Inclination: 98.4 °
Period: 101.1 minutes
Semi major axis: 7188 km
RCS: 0.4978 m2 (medium)
Launch date: April 20, 2011
Source: Singapore (SING)
Launch site: SRIHARIKOTA (SRI)

X-SAT, Singapore's first national satellite, has a multi-spectral camera and will demonstrate space-based remote sensing and image processing technologies.
aabbcc
Your satellite tracking list
Your tracking list is empty




NASA's NSSDC Master Catalog

Two Line Element Set (TLE):
1 37389U 11015C   20193.82232916 -.00000041  00000-0  48256-6 0  9993
2 37389  98.4333 248.1776 0013335 215.2064 144.8229 14.24379641479755
Source of the keplerian elements: AFSPC